Regional Weather Roundup
Issued by NWS State College, PA

Home | Current Version | Previous Version | Text Only | Print | Product List | Glossary On
Versions: 1 2 3 4 5 6 7 8 9 10 11 12 13 14 15 16 17 18 19 20 21 22 23 24 25 26 27 28 29 30 31 32 33 34 35 36 37 38 39 40 41 42 43 44 45 46 47 48 49 50
000
ASUS41 KCTP 191210
RWRCTP

REGIONAL WEATHER ROUNDUP
NATIONAL WEATHER SERVICE STATE COLLEGE PA
700 AM EST SUN FEB 19 2017

Note: "fair" indicates few or no clouds below 12,000 feet with no
significant weather and/or obstructions to visibility.

* = STATION THAT DOES NOT REPORT PRECIPITATION /E.G. RAIN...SNOW...ETC/
    THUNDER OR FOG.

PAZ002>004-007>009-013>016-020>023-029>032-191300-
WESTERN PENNSYLVANIA

CITY           SKY/WX    TMP DP  RH WIND       PRES   REMARKS
ERIE           PTCLDY    46  38  73 W10       29.88R
MEADVILLE      PTCLDY    42  37  82 SW6       29.88R
FRANKLIN*      PTCLDY    41  36  81 SW7       29.90R
NEW CASTLE     FAIR      43  41  93 SW6       29.92R
BEAVER COUNTY  NOT AVBL
BUTLER*        CLEAR     43  39  87 SW3       29.93R
PITTSBURGH INT PTCLDY    45  43  93 W6        29.92R
PITTSBURGH     CLEAR     44  39  82 S6        29.92R
INDIANA*       CLOUDY    45  43  93 W5        29.94R
LATROBE        CLOUDY    46  45  93 SW12      29.93S
WASHINGTON CO* MOCLDY    46  43  87 SW6       29.95R
$$

PAZ004>006-010>012-017>019-024>028-033>037-041-042-045-046-049>053-191300-
CENTRAL PENNSYLVANIA

CITY           SKY/WX    TMP DP  RH WIND       PRES   REMARKS
BRADFORD       CLEAR     41  38  89 W6        29.86R
DUBOIS         PTCLDY    40  37  89 SW12      29.88R FOG
CLEARFIELD       N/A    N/A N/A N/A MISG      29.88R
JOHNSTOWN      CLOUDY    44  42  93 W15G22    29.88R
ALTOONA        MOCLDY    47  42  83 S6        29.89R
STATE COLLEGE  CLEAR     46  41  81 W12G17    29.87R
WILLIAMSPORT   CLOUDY    31  29  92 CALM      29.84R
SELINSGROVE    CLEAR     33  31  92 CALM      29.85R
FT INDIANTOWN  CLOUDY    55  39  54 W5        29.83R
CAPITAL CITY   CLOUDY    55  38  52 W7        29.84R
HARRISBURG     CLOUDY    54  39  57 NW7       29.83R
YORK           CLOUDY    54  41  61 W7        29.84R
$$

PAZ038>040-043-044-047-048-054-055-060>062-067>071-191300-
EASTERN PENNSYLVANIA

CITY           SKY/WX    TMP DP  RH WIND       PRES   REMARKS
SCRANTON       CLEAR     47  35  63 S6        29.79R
MOUNT POCONO   CLEAR     44  35  70 W16G24    29.75R
ALLENTOWN      CLEAR     45  33  63 SW8       29.79R
QUAKERTOWN*    CLOUDY    55  37  50 W3        29.80R
READING        CLOUDY    54  38  54 NW3       29.81R
LANCASTER      CLOUDY    49  38  65 W7        29.83R
COATESVILLE    CLOUDY    54  36  50 NW9       29.84R
POTTSTOWN      CLOUDY    54  36  50 W6        29.82R
BLUE BELL      CLOUDY    54  36  50 CALM      29.80R
DOYLESTOWN     CLOUDY    56  36  47 W5        29.79R
WILLOW GROVE   NOT AVBL
NORTH PHILA    CLOUDY    56  34  43 W5        29.81R
PHILADELPHIA   CLOUDY    59  34  39 W8        29.81R
$$




USA.gov is the U.S. government's official web portal to all federal, state and local government web resources and services.